Location: Unspecified
(0.0000°N, 0.0000°E)
Time: 07:36:46
(UTC+00:00)

Explorer 11/Cluster Stage 4 - Visible Passes

Search period start: 03 April 2020 00:00
Search period end: 13 April 2020 00:00
Orbit: 467 x 1259 km, 28.8° (Epoch: 02 April)

Date Brightness Start Highest point End Pass type
(mag) Time Alt. Az. Time Alt. Az. Time Alt. Az.
03 Apr 8.1 03:25:50 44° ENE 03:25:50 44° ENE 03:30:06 10° ENE visible
03 Apr 8.0 05:08:00 17° W 05:12:17 30° NNW 05:17:34 10° NNE visible
04 Apr 8.5 03:15:56 34° ENE 03:15:56 34° ENE 03:19:26 10° ENE visible
04 Apr 8.2 04:58:06 19° WNW 05:01:28 27° NNW 05:06:41 10° NNE visible
05 Apr 8.9 03:05:59 26° NE 03:05:59 26° NE 03:08:44 10° NE visible
05 Apr 8.5 04:48:08 20° WNW 04:50:40 23° NNW 04:55:46 10° NNE visible
06 Apr 9.2 02:55:57 21° NE 02:55:57 21° NE 02:57:56 10° NE visible
06 Apr 8.6 04:38:05 19° NW 04:39:52 21° NNW 04:44:47 10° NNE visible
07 Apr 9.5 02:45:51 16° NE 02:45:51 16° NE 02:47:06 10° NE visible
07 Apr 8.8 04:27:59 18° NW 04:29:06 18° NNW 04:33:43 10° NNE visible
08 Apr 9.8 02:35:40 12° NE 02:35:40 12° NE 02:36:11 10° NE visible
08 Apr 9.0 04:17:48 16° NNW 04:18:20 16° NNW 04:22:36 10° N visible
09 Apr 9.2 04:07:33 14° NNW 04:07:37 14° NNW 04:11:23 10° N visible
10 Apr 9.3 03:57:15 13° NNW 03:57:15 13° NNW 04:00:02 10° N visible
11 Apr 9.5 03:46:53 11° NNW 03:46:53 11° NNW 03:48:26 10° N visible
